Tracking 19969 objects as of 12-Nov-2019
Live streaming from Space Station
objects crossing your sky now
Track the group of recently launched Starlink satellites

NANOSAT(1)

Track NANOSAT(1) now!
10-day predictions
NANOSAT(1) is classified as:


NORAD ID: 28493
Int'l Code: 2004-049B
Perigee: 652.8 km
Apogee: 661.1 km
Inclination: 98.1 °
Period: 97.7 minutes
Semi major axis: 7027 km
RCS: 0.2736 m2 (medium)
Launch date: December 18, 2004
Source: Spain (SPN)
Launch site: FRENCH GUIANA (FRGUI)

Will maintain contact with Spanish zone in Antarctica; extremely small magnetic and solar sensors.
aabbcc
Your satellite tracking list
Your tracking list is empty




NASA's NSSDC Master Catalog

Two Line Element Set (TLE):
1 28493U 04049B   19315.83057160 +.00000076 +00000-0 +19514-4 0  9999
2 28493 098.1308 040.3155 0005843 086.0024 274.1851 14.73533745800159
Source of the keplerian elements: AFSPC